Home > Weather > Kolding > Past weeks

Flag for Denmark Past Weather in Kolding, Denmark — Yesterday and Last 2 Weeks

Now
66 °F

Partly sunny.


Feels Like: 66 °F
Forecast: 54 / 62 °F
Wind: 14 mph from West

Location: Vamdrup

Current Time: Jun 26, 2016 at 2:03:24 PM

Latest Report: Jun 26, 2016 at 12:50 PM


Visibility: N/A

Pressure: 29.92 "Hg

Humidity: 64%

Dew Point: 54 °F

Location of KoldingLocation

Past Weather in Kolding — Graph

°F

Kolding Temperature Yesterday

Maximum temperature yesterday: 64 °F (at 2:50 PM)
Minimum temperature yesterday: 59 °F (at 5:20 AM)
Average temperature yesterday: 61 °F

High & Low Weather Summary for the Past Weeks

 TemperatureHumidityPressure
High77 °F (Jun 24, 2:50 PM)100% (Jun 15, 6:20 AM)30.21 "Hg (Jun 15, 6:20 AM)
Low45 °F (Jun 12, 2:20 AM)40% (Jun 11, 12:50 PM)29.45 "Hg (Jun 15, 4:20 AM)
Average60 °F80%29.85 "Hg
* Reported Jun 11 12:20 PM — Jun 26 12:20 PM, Kolding, Weather by CustomWeather, © 2016

Note: Actual official high and low records may vary slightly from our data, if they occured in-between our weather recording intervals... More about our weather records

Advertising

Kolding Weather History for the Previous 24 Hours

Scroll right to see more
 ConditionsComfort  
Time TempWeatherWind HumidityBarometerVisibility
12:20 PM
Sun, Jun 26
64 °FPartly sunny.16 mph64%29.92 "HgN/A
11:50 AM64 °FPartly sunny.16 mph73%29.89 "HgN/A
10:50 AM61 °FPartly sunny.14 mph77%29.89 "HgN/A
9:50 AM61 °FPartly sunny.15 mph83%29.86 "HgN/A
8:50 AM61 °FCool.14 mph83%29.86 "HgN/A
8:20 AM59 °FCool.14 mph88%29.86 "HgN/A
7:50 AM57 °FCool.13 mph94%29.83 "HgN/A
7:20 AM57 °FCool.10 mph94%29.83 "HgN/A
6:50 AM55 °FCool.9 mph94%29.83 "HgN/A
6:20 AM55 °FCool.12 mph94%29.83 "HgN/A
5:50 AM55 °FCool.13 mph94%29.80 "HgN/A
5:20 AM55 °FCool.9 mph94%29.80 "HgN/A
4:50 AM55 °FCool.10 mph94%29.77 "HgN/A
4:20 AM55 °FCool.12 mph94%29.80 "HgN/A
3:50 AM55 °FCool.13 mph94%29.80 "HgN/A
3:20 AM55 °FCool.15 mph100%29.80 "HgN/A
2:50 AM57 °FCool.14 mph94%29.80 "HgN/A
2:20 AM57 °FCool.13 mph94%29.80 "HgN/A
1:50 AM57 °FCool.9 mph94%29.80 "HgN/A
1:20 AM57 °FCool.6 mph94%29.80 "HgN/A
12:50 AM57 °FCool.9 mph100%29.80 "HgN/A
12:20 AM59 °FCool.9 mph94%29.80 "HgN/A
11:50 PM
Sat, Jun 25
59 °FCool.7 mph94%29.80 "HgN/A
11:20 PM59 °FCool.8 mph94%29.83 "HgN/A
10:50 PM59 °FCool.7 mph94%29.83 "HgN/A
10:20 PM61 °FCool.9 mph88%29.83 "HgN/A
9:50 PM61 °FCool.13 mph94%29.83 "HgN/A
9:20 PM61 °FCool.13 mph94%29.83 "HgN/A
8:50 PM61 °FCool.9 mph94%29.86 "HgN/A
8:20 PM61 °FCool.10 mph94%29.86 "HgN/A
7:50 PM61 °FCool.13 mph94%29.86 "HgN/A
7:20 PM61 °FCool.12 mph94%29.89 "HgN/A
6:50 PM63 °FMild.8 mph94%29.89 "HgN/A
6:20 PM63 °FMild.7 mph94%29.92 "HgN/A
3:50 PM64 °FPartly sunny.8 mph88%29.95 "HgN/A
3:20 PM64 °FPartly sunny.10 mph83%29.95 "HgN/A
2:50 PM64 °FBroken clouds.10 mph88%29.95 "HgN/A
2:20 PM63 °FBroken clouds.13 mph94%29.95 "HgN/A
Weather by CustomWeather, © 2016

See weather overviewHow to use our weather pages